User: anonymous   Login
Location: Asheville, NC
(35.6000°N, 82.5500°W)
Time: 15:24:22
(UTC-04:00)
Language:

BUGSAT 1 - Orbit

View from above orbital plane
View from above orbital plane
View from above satellite
View from above satellite

Ground track
Ground track

The orbit data is extracted from the following two-line orbital elements,

1 40014U 14033E   18176.40124709  .00000169  00000-0  20965-4 0  9992
2 40014  97.9782 111.9361 0031820 165.4759 194.7347 14.95064836218963
Epoch (UTC): 25 June 2018 09:37:47
Eccentricity: 0.0031820
inclination: 97.9782°
perigee height: 560 km
apogee height: 604 km
right ascension of ascending node: 111.9361°
argument of perigee: 165.4759°
revolutions per day: 14.95064836
mean anomaly at epoch: 194.7347°
orbit number at epoch: 21896

The dashed part of the orbit path shows where the satellite is in the earth's shadow,  

DLR